AirNav   Duncan Aviation - Near you to keep you flying
 
 1552 users online  

8MO9 Mercy Hospital St Louis Heliport
St Louis, Missouri, USA

GOING TO ST LOUIS?


FAA INFORMATION EFFECTIVE 07 OCTOBER 2021

Location

FAA Identifier: 8MO9
Lat/Long: 38-38-37.2100N 090-26-54.0100W
38-38.620167N 090-26.900167W
38.6436694,-90.4483361
(estimated)
Elevation: 633 ft. / 193 m (estimated)
Variation: 02E (1985)
Time zone: UTC -5 (UTC -6 during Standard Time)
Zip code: 63141

Heliport Operations

Heliport use: Private use, MEDICAL.
Activation date: 08/1973
Control tower: no
ARTCC: KANSAS CITY CENTER
FSS: SAINT LOUIS FLIGHT SERVICE STATION
Attendance: CONTINUOUS
FOR SVC CALL 314-251-1050.
Wind indicator: yes
Segmented circle: no
Lights: FOR LGTS CALL 314-251-6050.

Heliport Communications

WX ASOS at STL (7 nm NE): PHONE 314-890-4790
WX ASOS at SUS (10 nm W): 134.8 (314-890-7255)
WX ASOS at CPS (14 nm E): PHONE 618-332-0001
WX ASOS at SET (17 nm N): 118.075 (636-250-4590)

Nearby radio navigation aids

VOR radial/distance  VOR name  Freq  Var
STLr172/13.1ST LOUIS VORTAC117.4001E
FTZr092/24.7FORISTELL VORTAC110.8005E
TOYr253/25.5TROY VORTAC116.0004E

 
NDB name  Hdg/Dist  Freq  Var  ID
EAVES115/5.122701WFZ ..-. --..
SNOOP090/14.932601WSU ... ..-
CIVIC MEMORIAL232/23.626301WCVM -.-. ...- --

Heliport Services

Airframe service: NONE
Powerplant service: NONE

Runway Information

Helipad H1

Dimensions: 135 x 90 ft. / 41 x 27 m
Surface: concrete
Runway edge lights: non-standard
40 WATT 33.81 C.P. 425 LUMINS.
Latitude: 38-38.620167N
Longitude: 090-26.900167W
Elevation: 633.0 ft.
Traffic pattern: leftleft

Heliport Ownership and Management from official FAA records

Ownership: Privately-owned
Owner: MERCY HOSPITAL ST. LOUIS
615 SOUTH NEW BALLAS RD.
ST LOUIS, MO 63141
Phone (314) 251-1900
Manager: NATASHA ZVENTEL, DIRECTOR
615 SOUTH NEW BALLAS ROAD
ST LOUIS, MO 63141
Phone (314) 251-4988
ADDITIONAL CONTACT: STEVE BOLLIN 314-251-1906 STEVE.BOLLIN@MERCY.NET

Heliport Operational Statistics

Aircraft based on the field: 3
Helicopters: 3
    

Additional Remarks

A52-H1 RWY H1 MERCY HOSPITAL ST. LOUIS BLDG LGTD & MKD; 658' PARKING LGT STD 25' SOUTH
FOR CD CTC ST LOUIS APCH AT 314-890-1018.

Instrument Procedures

There are no published instrument procedures at 8MO9.

Some nearby airports with instrument procedures:

1H0 - Creve Coeur Airport (6 nm NW)
KSTL - St Louis Lambert International Airport (7 nm NE)
KSUS - Spirit of St Louis Airport (10 nm W)
KCPS - St Louis Downtown Airport (14 nm E)
KSET - St Charles County Smartt Airport (17 nm N)
 
Loc | Ops | Rwys | IFR | FBO | Links
Com | Nav | Svcs | Stats | Notes
Area around 8MO9 (Mercy Hospital St Louis Heliport)
 
Road maps at: MapQuest Bing Google
 
Aerial photo
No photo
 
Sectional chart

 
Airport distance calculator
Flying to Mercy Hospital St Louis Heliport? Find the distance to fly.

From to 8MO9

Sunrise and sunset
Times for 21-Oct-2021
 Local
(UTC-5)
 Zulu
(UTC)
Morning civil twilight06:5111:51
Sunrise07:1812:18
Sunset18:1523:15
Evening civil twilight18:4223:42

Current date and time
Zulu (UTC)  21-Oct-2021 15:37:49
Local (UTC-5)  21-Oct-2021 10:37:49
 
METAR
KSTL 
7nm NE 
211451Z 28014G23KT 10SM OVC022 11/05 A3008 RMK AO2 SLP181 T01060050 53019
KSUS 
9nm W 
211454Z 28013G21KT 10SM OVC025 10/04 A3008 RMK AO2 SLP184 T01000044 53020
KCPS 
15nm E 
211518Z 31018G23KT 10SM OVC029 11/06 A3008 RMK AO2 T01110056
KSET 
17nm N 
211454Z AUTO 30017KT 10SM OVC025 11/04 A3007 RMK AO2 SLP179 T01110039 53016
TAF
KSTL 
7nm NE 
211132Z 2112/2218 27012G18KT P6SM SCT025 TEMPO 2113/2115 BKN025 FM211500 29014G22KT P6SM BKN025 FM220000 31008KT P6SM BKN030 FM220900 30005KT P6SM BKN025
KSUS 
9nm W 
211132Z 2112/2212 27010G16KT P6SM SCT025 TEMPO 2113/2115 BKN025 FM211500 29014G22KT P6SM BKN025 FM220000 30007KT P6SM BKN030 FM220900 VRB04KT P6SM BKN025
KCPS 
15nm E 
211311Z 2113/2212 27011G17KT P6SM SCT025 FM211500 29014G22KT P6SM BKN025 FM220000 31008KT P6SM BKN030 FM220900 30005KT P6SM BKN025
NOTAMs
Click for the latest NOTAMs
NOTAMs are issued by the DoD/FAA and will open in a separate window not controlled by AirNav.

 

 
 

Would you like to see your business listed on this page?

 If your business provides an interesting product or service to pilots, flight crews, aircraft, or users of the Mercy Hospital St Louis Heliport, you should consider listing it here.  To start the listing process, click on the button below
 
Add a business
 

Other Pages about Mercy Hospital St Louis Heliport

Update a link
 
Copyright © AirNav, LLC. All rights reserved. Privacy Policy  Contact